Lebanon, NH

5:10 AM EST on December 18, 2017 (GMT -0500)
Lebanon Municipal

Weather History for KLEB - July, 2013

Change the Weather History Date:

Saturday, July 20, 2013

  Actual Average Record
Temperature  
Mean Temperature 77 °F -  
Max Temperature 87 °F 83 °F 96 °F (1991)
Min Temperature 66 °F 60 °F 39 °F (1929)
Cooling Degree Days 12    
Growing Degree Days 27 (Base 50)    
Moisture  
Dew Point 66 °F    
Average Humidity 73    
Maximum Humidity 93    
Minimum Humidity 49    
Precipitation  
Precipitation 0.02 in - - ()
Sea Level Pressure  
Sea Level Pressure 29.68 in    
Wind  
Wind Speed 9 mph (SSW)    
Max Wind Speed 14 mph    
Max Gust Speed 23 mph    
Visibility 10 miles    
Events Rain , Thunderstorm    
Averages and records for this station are not official NWS values.
T = Trace of Precipitation, MM = Missing Value Source: NWS Daily Summary

Daily Weather History Graph

Daily Weather History Graph

Search for Another Location

Airport or City:

Trip Planner

Search our weather history database for the weather conditions in past years. The results will help you decide how hot, cold, wet, or windy it might be!

Date:

Astronomy

Jul. 20, 2013 Rise Set
Actual Time 5:26 AM EDT 8:24 PM EDT
Civil Twilight 4:52 AM EDT 8:58 PM EDT
Nautical Twilight 4:08 AM EDT 9:41 PM EDT
Astronomical Twilight 3:17 AM EDT 10:32 PM EDT
Moon 6:24 PM EDT (7/20) 3:03 AM EDT (7/20)
Length of Visible Light 16h 05m
Length of Day
14h 57m
Waxing Gibbous, 93% of the Moon is Illuminated
Jul 20
Waxing Gibbous
Jul 22
Full
Jul 29
Last Quarter
Aug 6
New
Aug 14
First Quarter

Hourly Weather History & Observations

Time (EDT) Temp. Heat Index Dew Point Humidity Pressure Visibility Wind Dir Wind Speed Gust Speed Precip Events Conditions
12:00 AM 73.4 °F - 69.8 °F 88% 29.73 in 7.0 mi SSE 13.8 mph 20.7 mph 0.01 in Rain , Thunderstorm Light Rain
12:21 AM 73.4 °F - 69.8 °F 88% 29.68 in 10.0 mi South 11.5 mph - 0.02 in Rain Light Rain
12:53 AM 72.0 °F - 68.0 °F 87% 29.65 in 10.0 mi SSW 13.8 mph - 0.02 in   Clear
1:53 AM 71.1 °F - 68.0 °F 90% 29.68 in 10.0 mi South 8.1 mph - N/A   Clear
2:53 AM 71.1 °F - 66.9 °F 87% 29.66 in 10.0 mi South 3.5 mph - N/A   Clear
3:53 AM 69.1 °F - 66.0 °F 90% 29.67 in 10.0 mi South 8.1 mph - N/A   Clear
4:53 AM 69.1 °F - 64.9 °F 87% 29.66 in 10.0 mi South 8.1 mph - N/A   Clear
5:53 AM 68.0 °F - 64.9 °F 90% 29.68 in 9.0 mi Calm Calm - N/A   Clear
6:53 AM 70.0 °F - 66.9 °F 90% 29.69 in 10.0 mi SSW 3.5 mph - N/A   Clear
7:53 AM 73.0 °F - 66.9 °F 81% 29.70 in 10.0 mi South 5.8 mph - N/A   Clear
8:53 AM 78.1 °F - 66.9 °F 68% 29.68 in 10.0 mi Variable 4.6 mph - N/A   Clear
9:53 AM 81.0 °F 82.5 °F 64.0 °F 56% 29.68 in 10.0 mi WSW 8.1 mph - N/A   Partly Cloudy
10:53 AM 84.0 °F 85.4 °F 64.0 °F 51% 29.67 in 10.0 mi SSW 9.2 mph - N/A   Clear
11:53 AM 86.0 °F 87.6 °F 64.9 °F 49% 29.65 in 10.0 mi WSW 9.2 mph - N/A   Clear
12:53 PM 82.9 °F 84.6 °F 64.9 °F 54% 29.65 in 10.0 mi SW 11.5 mph 17.3 mph N/A   Scattered Clouds
1:53 PM 84.9 °F 87.1 °F 66.0 °F 53% 29.63 in 10.0 mi SW 10.4 mph 18.4 mph N/A   Partly Cloudy
2:53 PM 84.9 °F 86.6 °F 64.9 °F 51% 29.63 in 10.0 mi WSW 12.7 mph 21.9 mph N/A   Partly Cloudy
3:53 PM 86.0 °F 88.2 °F 66.0 °F 51% 29.63 in 10.0 mi WSW 8.1 mph 23.0 mph N/A   Partly Cloudy
4:53 PM 81.0 °F 83.0 °F 66.0 °F 60% 29.65 in 10.0 mi SW 12.7 mph 20.7 mph 0.00 in   Mostly Cloudy
5:53 PM 81.0 °F 83.0 °F 66.0 °F 60% 29.67 in 10.0 mi SSW 9.2 mph - N/A   Scattered Clouds
6:53 PM 81.0 °F 82.2 °F 63.0 °F 54% 29.70 in 10.0 mi West 8.1 mph - N/A   Mostly Cloudy
7:53 PM 79.0 °F - 63.0 °F 58% 29.70 in 10.0 mi West 4.6 mph - N/A   Scattered Clouds
8:53 PM 71.1 °F - 64.9 °F 81% 29.73 in 10.0 mi Calm Calm - N/A   Clear
9:53 PM 69.1 °F - 64.9 °F 87% 29.75 in 10.0 mi South 6.9 mph - N/A   Clear
10:53 PM 68.0 °F - 64.9 °F 90% 29.76 in 10.0 mi South 5.8 mph - N/A   Clear
11:53 PM 66.0 °F - 64.0 °F 93% 29.78 in 10.0 mi Calm Calm - N/A   Clear